Location: Unspecified
(0.0000°N, 0.0000°E)
Time: 12:19:41
(UTC+00:00)

Amateur Radio Satellites - All Passes

Search period start: 23 March 2017 11:49
Search period end: 24 March 2017 11:49
Location: Unspecified, 0.0000°N, 0.0000°E

Satellite Date Start Highest point End Downlink Frequencies (MHz)
Time Altitude Azimuth
DX 1 23 Mar 11:50:50 11:54:15 22° 102° (ESE) 11:57:40 434.975-435.025
EO-79 23 Mar 11:51:11 11:55:07 37° 258° (WSW) 11:59:04 145.935-145.965
VELOX 1 23 Mar 11:59:41 12:04:07 82° 283° (WNW) 12:08:36 145.980
ESTCUBE 1 23 Mar 12:08:21 12:10:49 15° 282° (WNW) 12:13:19 437.505/2401.250
50 SAT 23 Mar 12:11:39 12:15:10 85° 282° (WNW) 12:18:41 437.505
POLYITAN 1 23 Mar 12:19:24 12:21:58 16° 258° (WSW) 12:24:34 437.675
QB50P2 23 Mar 12:24:40 12:26:24 12° 258° (WSW) 12:28:06 145.880/145.840
Gurwin Techsat 1B 23 Mar 12:27:27 12:29:18 12° 77° (ENE) 12:31:09 435.225
SO-50 23 Mar 12:32:58 12:34:44 12° 113° (ESE) 12:36:30 436.795
UKube-1 23 Mar 12:37:59 12:42:17 70° 101° (E) 12:46:36 .
Oscar 19 23 Mar 12:41:28 12:46:14 39° 78° (ENE) 12:50:58 437.125/150
JUGNU 23 Mar 12:56:48 13:00:27 16° 13° (NNE) 13:04:05 437.505
BUGSAT 1 23 Mar 13:14:47 13:16:39 13° 258° (WSW) 13:18:30 437.445
DX 1 23 Mar 13:27:37 13:30:10 15° 282° (WNW) 13:32:43 434.975-435.025
Gurwin Techsat 1B 23 Mar 14:03:57 14:08:58 43° 258° (WSW) 14:13:57 435.225
SO-50 23 Mar 14:10:40 14:14:59 35° 292° (WNW) 14:19:15 436.795
AO-7 23 Mar 14:11:48 14:18:25 26° 73° (ENE) 14:24:59 .
ITAMSAT 1 23 Mar 14:20:08 14:24:39 30° 77° (ENE) 14:29:09 435.822/435.867
Oscar 19 23 Mar 14:23:23 14:25:15 12° 257° (WSW) 14:27:07 437.125/150
BEESAT 23 Mar 14:26:51 14:31:34 73° 102° (ESE) 14:36:19 436.000
ITUPSAT 1 23 Mar 14:40:27 14:45:10 76° 282° (WNW) 14:49:56 437.325
JUGNU 23 Mar 14:44:29 14:49:58 36° 20° (NNE) 14:55:25 437.505
SRMSAT 23 Mar 14:52:54 14:55:29 13° 10° (N) 14:58:04 437.500
MOZHAYETS 4 23 Mar 15:17:34 15:22:05 73° 282° (WNW) 15:26:39
O/OREOS (USA 219) 23 Mar 15:20:40 15:24:06 22° 104° (ESE) 15:27:32 437.305
KKS-1 23 Mar 15:27:39 15:30:55 20° 103° (ESE) 15:34:10 437.445
CUBESAT XI-V 23 Mar 15:59:49 16:04:09 39° 102° (ESE) 16:08:32 437.345
ITAMSAT 1 23 Mar 16:00:32 16:03:49 17° 257° (WSW) 16:07:08 435.822/435.867
AO-7 23 Mar 16:03:05 16:10:48 42° 254° (WSW) 16:18:31 .
STARS 23 Mar 16:13:48 16:17:40 30° 102° (ESE) 16:21:30 437.465
JUGNU 23 Mar 16:33:04 16:39:04 84° 203° (SSW) 16:45:04 437.505
SRMSAT 23 Mar 16:40:29 16:45:22 26° 18° (NNE) 16:50:13 437.500
DOVE 4 23 Mar 17:00:11 17:03:23 21° 77° (ENE) 17:06:39 437.250
O/OREOS (USA 219) 23 Mar 17:00:34 17:03:13 15° 285° (WNW) 17:05:52 437.305
LilacSat-2 23 Mar 17:02:34 17:04:53 15° 79° (E) 17:07:11 437.200
KKS-1 23 Mar 17:04:12 17:07:11 18° 282° (WNW) 17:10:11 437.445
XW-2F 23 Mar 17:07:45 17:10:13 17° 79° (E) 17:12:41 145.980 - 146.000
NO-84 23 Mar 17:07:57 17:11:55 78° 238° (WSW) 17:16:12 435.350 FM
CUTE-I 23 Mar 17:22:11 17:26:51 31° 77° (ENE) 17:31:30 437.470
XW-2D 23 Mar 17:30:07 17:33:46 41° 79° (E) 17:37:23 145.860 - 145.880
XW-2B 23 Mar 17:35:52 17:39:36 49° 79° (E) 17:43:18 145.730 - 145.750
NUDT-PHONESAT 23 Mar 17:42:56 17:46:36 48° 79° (E) 17:50:13 437.300
KAITUO 1B 23 Mar 17:45:28 17:49:12 54° 78° (ENE) 17:52:52 145.475/437.950
XW-2C 23 Mar 17:45:45 17:49:36 76° 79° (E) 17:53:25 145.795 - 145.815
M-CUBED/EXP-1 PRIME 23 Mar 17:48:53 17:53:32 80° 107° (ESE) 17:58:03 437.505
STARS 23 Mar 17:52:31 17:53:43 11° 283° (WNW) 17:54:54 437.465
HO-68 23 Mar 18:08:17 18:13:10 20° 75° (ENE) 18:18:00 435.675
YUBILEINY 23 Mar 18:18:24 18:25:49 31° 87° (E) 18:33:14 435.215
ISS 23 Mar 18:20:04 18:22:57 30° 126° (SE) 18:25:51 437.550
CUTE 1.7 + AOD 2 23 Mar 18:20:23 18:22:33 14° 79° (ENE) 18:24:43 437.475
JUGNU 23 Mar 18:22:59 18:28:13 31° 199° (SSW) 18:33:26 437.505
SRMSAT 23 Mar 18:28:49 18:34:43 67° 21° (NNE) 18:40:37 437.500
Tancredo 1 23 Mar 18:35:56 18:39:05 71° 124° (SE) 18:42:12 437.200
LilacSat-2 23 Mar 18:36:25 18:38:53 16° 258° (WSW) 18:41:21 437.200
STRAND 1 23 Mar 18:37:49 18:42:33 40° 102° (ESE) 18:47:19 437.568
DOVE 4 23 Mar 18:38:20 18:40:50 15° 259° (W) 18:43:23 437.250
XW-2F 23 Mar 18:41:54 18:44:06 15° 258° (WSW) 18:46:17 145.980 - 146.000
XW-2A 23 Mar 18:52:17 18:55:40 62° 80° (E) 18:59:04 145.665 - 145.685
CUBEBUG 2 23 Mar 18:59:31 19:02:59 21° 78° (ENE) 19:06:30 437.445
CUTE-I 23 Mar 19:03:10 19:06:36 17° 257° (WSW) 19:10:03 437.470
ZACube-1 23 Mar 19:24:38 19:26:11 12° 78° (ENE) 19:27:44 437.345
AAUSAT CUBESAT 2 23 Mar 19:49:13 19:53:19 66° 78° (ENE) 19:57:22 437.432
AO-85 23 Mar 19:51:40 19:56:38 65° 291° (WNW) 20:01:14 145.980
AO-73 23 Mar 19:52:53 19:56:43 27° 78° (ENE) 20:00:31 145.935
HO-68 23 Mar 19:53:48 20:00:33 45° 256° (WSW) 20:07:16 435.675
SEEDS 23 Mar 19:54:13 19:58:08 38° 259° (WSW) 20:02:01 437.485
CUTE 1.7 + AOD 2 23 Mar 19:54:47 19:58:07 23° 258° (WSW) 20:01:26 437.475
PCSat 23 Mar 20:06:49 20:11:55 43° 71° (ENE) 20:17:01 145.827
UWE-3 23 Mar 20:08:38 20:13:16 80° 258° (WSW) 20:17:56 435.000/436.395/437.385
JUGNU 23 Mar 20:14:39 20:17:48 14° 192° (SSW) 20:20:57 437.505
YUBILEINY 23 Mar 20:14:43 20:22:12 33° 267° (W) 20:29:46 435.215
SRMSAT 23 Mar 20:18:19 20:23:56 44° 200° (SSW) 20:29:33 437.500
STRAND 1 23 Mar 20:19:53 20:21:27 11° 283° (WNW) 20:23:01 437.568
CUBEBUG 2 23 Mar 20:35:59 20:39:19 20° 259° (WSW) 20:42:41 437.445
Oscar 11 23 Mar 20:57:19 21:01:27 43° 258° (WSW) 21:05:34 .
ZACube-1 23 Mar 20:58:05 21:02:10 32° 258° (WSW) 21:06:15 437.345
TIGRISAT 23 Mar 21:01:05 21:03:49 17° 102° (ESE) 21:06:32 435.000
BEESAT 3 23 Mar 21:05:05 21:08:49 57° 112° (ESE) 21:12:36 437.485
UNISAT 6 23 Mar 21:09:23 21:12:53 25° 102° (ESE) 21:16:22 437.425
BEESAT 2 23 Mar 21:13:41 21:16:35 20° 112° (ESE) 21:19:29 435.950
PRISM 23 Mar 21:24:21 21:28:29 68° 282° (WNW) 21:32:38 437.425
RS-15 23 Mar 21:24:51 21:29:00 12° 65° (ENE) 21:33:04 29.354- 29.394
AO-73 23 Mar 21:30:14 21:32:39 14° 258° (WSW) 21:35:04 145.935
DELFI C3 23 Mar 21:40:18 21:44:03 43° 258° (WSW) 21:47:46 145.870
PCSat 23 Mar 21:53:05 21:55:03 12° 250° (WSW) 21:57:02 145.827
SRMSAT 23 Mar 22:09:25 22:13:28 19° 195° (SSW) 22:17:31 437.500
AIST 2D 23 Mar 22:24:35 22:27:05 19° 101° (E) 22:29:35 435.315
FO-29 23 Mar 22:31:56 22:37:15 62° 283° (WNW) 22:42:22 435.910
TIGRISAT 23 Mar 22:37:14 22:40:15 19° 282° (WNW) 22:43:15 435.000
LO-87 23 Mar 22:43:19 22:46:52 78° 261° (W) 22:50:24 145.935 - 145.965
ESTCUBE 1 23 Mar 22:44:14 22:48:25 38° 78° (ENE) 22:52:34 437.505/2401.250
UNISAT 6 23 Mar 22:47:27 22:49:20 13° 282° (WNW) 22:51:12 437.425
POLYITAN 1 23 Mar 22:49:13 22:52:38 24° 102° (ESE) 22:56:02 437.675
BEESAT 2 23 Mar 22:52:18 22:54:05 13° 292° (WNW) 22:55:52 435.950
QB50P2 23 Mar 22:53:21 22:57:04 31° 102° (ESE) 23:00:48 145.880/145.840
DUCHIFAT 1 23 Mar 23:10:40 23:14:34 39° 102° (ESE) 23:18:28 145.980
RS-15 23 Mar 23:29:44 23:41:31 90° 252° (WSW) 23:52:43 29.354- 29.394
BUGSAT 1 23 Mar 23:41:14 23:44:37 25° 102° (ESE) 23:47:59 437.445
SPROUT 23 Mar 23:45:08 23:49:17 49° 78° (ENE) 23:53:25 437.525
NANOSAT C BR1 23 Mar 23:54:52 23:58:43 36° 282° (WNW) 00:02:34 145.865
JUGNU 23 Mar 23:55:51 23:58:04 12° 171° (S) 00:00:17 437.505
50 SAT 23 Mar 23:57:06 00:00:27 49° 78° (ENE) 00:03:46 437.505
EO-79 23 Mar 23:57:26 00:01:07 30° 282° (WNW) 00:04:48 145.935-145.965
DX 1 24 Mar 00:00:04 00:03:51 30° 78° (ENE) 00:07:36 434.975-435.025
SRMSAT 24 Mar 00:02:25 00:03:33 11° 186° (S) 00:04:41 437.500
VELOX 1 24 Mar 00:11:21 00:15:39 55° 258° (WSW) 00:19:56 145.980
POLYITAN 1 24 Mar 00:26:25 00:28:09 12° 282° (WNW) 00:29:53 437.675
SO-50 24 Mar 00:43:55 00:47:14 20° 68° (ENE) 00:50:34 436.795
UKube-1 24 Mar 00:46:25 00:50:43 88° 267° (W) 00:55:00 .
Gurwin Techsat 1B 24 Mar 01:02:54 01:07:41 35° 103° (ESE) 01:12:29 435.225
Oscar 19 24 Mar 01:14:37 01:19:47 79° 283° (WNW) 01:25:00 437.125/150
BUGSAT 1 24 Mar 01:18:32 01:19:42 11° 282° (WNW) 01:20:53 437.445
ITUPSAT 1 24 Mar 01:28:51 01:29:56 11° 77° (ENE) 01:31:02 437.325
DX 1 24 Mar 01:38:40 01:39:45 11° 257° (WSW) 01:40:49 434.975-435.025
JUGNU 24 Mar 01:43:07 01:47:47 24° 163° (SSE) 01:52:26 437.505
RS-15 24 Mar 01:50:12 01:53:35 12° 247° (WSW) 01:56:57 29.354- 29.394
SRMSAT 24 Mar 01:52:50 01:53:57 10° 174° (S) 01:55:04 437.500
SO-50 24 Mar 02:24:17 02:27:26 19° 247° (WSW) 02:30:37 436.795
AO-7 24 Mar 02:36:56 02:44:38 43° 106° (ESE) 02:52:21 .
Gurwin Techsat 1B 24 Mar 02:44:28 02:47:21 15° 283° (WNW) 02:50:14 435.225
BEESAT 24 Mar 02:48:46 02:53:28 57° 257° (WSW) 02:58:09 436.000
ITAMSAT 1 24 Mar 02:54:25 02:59:35 80° 103° (ESE) 03:04:45 435.822/435.867
ITUPSAT 1 24 Mar 03:03:02 03:07:29 38° 257° (WSW) 03:11:55 437.325
O/OREOS (USA 219) 24 Mar 03:30:52 03:35:06 37° 76° (ENE) 03:39:20 437.305
JUGNU 24 Mar 03:31:11 03:36:59 62° 159° (SSE) 03:42:47 437.505
MOZHAYETS 4 24 Mar 03:34:28 03:38:52 42° 258° (WSW) 03:43:13
KKS-1 24 Mar 03:39:28 03:43:19 29° 78° (ENE) 03:47:09 437.445
SRMSAT 24 Mar 03:40:00 03:44:03 19° 165° (SSE) 03:48:06 437.500
CUBESAT XI-V 24 Mar 04:17:54 04:22:31 70° 78° (ENE) 04:27:05 437.345
STARS 24 Mar 04:24:14 04:28:25 43° 78° (ENE) 04:32:35 437.465
AO-7 24 Mar 04:30:37 04:37:01 25° 287° (WNW) 04:43:29 .
NO-84 24 Mar 04:54:07 04:57:25 87° 301° (WNW) 05:00:26 435.350 FM
LilacSat-2 24 Mar 04:57:38 04:59:07 12° 102° (ESE) 05:00:36 437.200
XW-2F 24 Mar 05:01:49 05:03:26 12° 102° (ESE) 05:05:03 145.980 - 146.000
KKS-1 24 Mar 05:17:58 05:19:36 12° 257° (WSW) 05:21:12 437.445
DOVE 4 24 Mar 05:19:29 05:24:27 46° 101° (E) 05:29:12 437.250
JUGNU 24 Mar 05:20:25 05:26:01 47° 340° (NNW) 05:31:40 437.505
XW-2D 24 Mar 05:23:59 05:27:20 31° 101° (ESE) 05:30:42 145.860 - 145.880
SRMSAT 24 Mar 05:27:57 05:33:36 43° 160° (SSE) 05:39:17 437.500
XW-2B 24 Mar 05:29:42 05:33:10 37° 101° (ESE) 05:36:40 145.730 - 145.750
NUDT-PHONESAT 24 Mar 05:34:48 05:38:07 33° 101° (ESE) 05:41:28 437.300
KAITUO 1B 24 Mar 05:37:57 05:41:24 38° 101° (ESE) 05:44:53 145.475/437.950
XW-2C 24 Mar 05:39:32 05:43:12 57° 101° (ESE) 05:46:53 145.795 - 145.815
M-CUBED/EXP-1 PRIME 24 Mar 05:48:59 05:52:14 68° 75° (ENE) 05:55:37 437.505
ISS 24 Mar 05:54:22 05:56:47 19° 54° (NE) 05:59:14 437.550
HO-68 24 Mar 06:00:34 06:04:40 16° 105° (ESE) 06:08:45 435.675
CUTE-I 24 Mar 06:00:48 06:06:07 90° 72° (ENE) 06:11:28 437.470
Tancredo 1 24 Mar 06:07:37 06:10:35 35° 55° (NE) 06:13:34 437.200
CUTE 1.7 + AOD 2 24 Mar 06:25:56 06:28:41 17° 102° (ESE) 06:31:27 437.475
LilacSat-2 24 Mar 06:30:25 06:33:07 19° 281° (W) 06:35:51 437.200
XW-2F 24 Mar 06:34:45 06:37:19 18° 281° (W) 06:39:54 145.980 - 146.000
XW-2A 24 Mar 06:35:31 06:38:25 28° 101° (E) 06:41:21 145.665 - 145.685
YUBILEINY 24 Mar 06:50:49 06:59:30 62° 93° (E) 07:08:05 435.215
DOVE 4 24 Mar 07:01:09 07:01:44 10° 283° (WNW) 07:02:19 437.250
STRAND 1 24 Mar 07:10:02 07:15:12 79° 258° (WSW) 07:20:21 437.568
JUGNU 24 Mar 07:11:12 07:15:21 20° 345° (NNW) 07:19:31 437.505
CUBEBUG 2 24 Mar 07:11:54 07:15:27 27° 101° (ESE) 07:18:58 437.445
SRMSAT 24 Mar 07:16:53 07:22:51 69° 339° (NNW) 07:28:50 437.500
ISS 24 Mar 07:31:31 07:33:04 13° 234° (SW) 07:34:37 437.550
ZACube-1 24 Mar 07:33:48 07:35:52 14° 102° (ESE) 07:37:56 437.345
HO-68 24 Mar 07:45:05 07:52:00 53° 284° (WNW) 07:58:58 435.675
AAUSAT CUBESAT 2 24 Mar 07:52:27 07:56:36 75° 102° (ESE) 08:00:47 437.432
SEEDS 24 Mar 07:59:24 08:03:09 32° 281° (W) 08:06:56 437.485
CUTE 1.7 + AOD 2 24 Mar 08:01:19 08:04:15 18° 281° (WNW) 08:07:13 437.475
AO-73 24 Mar 08:02:21 08:06:02 32° 101° (ESE) 08:09:44 145.935
AO-85 24 Mar 08:04:20 08:08:10 33° 247° (WSW) 08:12:17 145.980
UWE-3 24 Mar 08:20:22 08:24:25 52° 281° (WNW) 08:28:27 435.000/436.395/437.385
PCSat 24 Mar 08:42:45 08:48:03 59° 289° (WNW) 08:53:21 145.827
CUBEBUG 2 24 Mar 08:50:43 08:51:47 11° 282° (WNW) 08:52:52 437.445
YUBILEINY 24 Mar 08:51:19 08:55:52 15° 273° (W) 09:00:26 435.215
BEESAT 3 24 Mar 08:56:51 09:00:44 58° 69° (ENE) 09:04:34 437.485
JUGNU 24 Mar 09:03:50 09:05:15 11° 354° (N) 09:06:40 437.505
Oscar 11 24 Mar 09:06:09 09:09:59 32° 281° (WNW) 09:13:51 .
BEESAT 2 24 Mar 09:06:36 09:09:43 22° 68° (ENE) 09:12:49 435.950
SRMSAT 24 Mar 09:07:15 09:12:13 27° 342° (NNW) 09:17:12 437.500
ZACube-1 24 Mar 09:08:45 09:11:53 21° 282° (WNW) 09:15:02 437.345
TIGRISAT 24 Mar 09:12:46 09:16:44 28° 78° (ENE) 09:20:43 435.000
UNISAT 6 24 Mar 09:21:37 09:26:00 41° 78° (ENE) 09:30:23 437.425
PRISM 24 Mar 09:27:07 09:31:08 61° 258° (WSW) 09:35:07 437.425
DELFI C3 24 Mar 09:38:24 09:42:14 47° 281° (W) 09:46:06 145.870
FO-29 24 Mar 10:01:37 10:09:13 70° 76° (ENE) 10:17:01 435.910
AIST 2D 24 Mar 10:11:59 10:13:17 12° 79° (E) 10:14:35 435.315
EO-79 24 Mar 10:29:50 10:31:39 12° 78° (ENE) 10:33:27 145.935-145.965
LO-87 24 Mar 10:31:18 10:34:52 62° 100° (E) 10:38:28 145.935 - 145.965
BEESAT 2 24 Mar 10:45:27 10:47:13 13° 248° (WSW) 10:48:59 435.950
TIGRISAT 24 Mar 10:50:40 10:53:08 14° 258° (WSW) 10:55:37 435.000
JUGNU 24 Mar 10:54:35 10:55:29 10° 5° (N) 10:56:22 437.505
POLYITAN 1 24 Mar 10:55:04 10:58:51 30° 78° (ENE) 11:02:36 437.675
ESTCUBE 1 24 Mar 10:57:52 11:02:19 62° 102° (ESE) 11:06:48 437.505/2401.250
QB50P2 24 Mar 10:59:19 11:03:19 39° 78° (ENE) 11:07:18 145.880/145.840
SRMSAT 24 Mar 10:59:22 11:02:06 13° 350° (N) 11:04:48 437.500
RS-15 24 Mar 11:10:52 11:22:14 77° 110° (ESE) 11:34:12 29.354- 29.394
DUCHIFAT 1 24 Mar 11:15:49 11:19:54 48° 78° (ENE) 11:23:59 145.980
50 SAT 24 Mar 11:42:31 11:45:32 27° 102° (ESE) 11:48:33 437.505
AIST 2D 24 Mar 11:43:52 11:46:14 17° 259° (WSW) 11:48:36 435.315
